K-HERO (66660 NORAD) Tracking and Keplerian Element Data

This shows tracking and keplerian element data for the satellite.

Feedback or suggestion? Click here.




ElementValue
Catalog66660
NameK-HERO
Epoch Orbit339
Epoch Day353.37393786
Epoch Year2025
RAAN280.4848
Inclination97.7404
Eccentricity0.0012565
Argument of Perigee256.3531
Mean Anonmoly103.6289
Mean Motion14.92997006
Decay Rate1.653E-05
L11 66660U 25274L 25353.37393786 .00001653 00000-0 16428-3 0 9997
L22 66660 97.7404 280.4848 0012565 256.3531 103.6289 14.92997006 3396



Live tracking and technical data element details for K-HERO (NORAD 66660). K-HERO can be tracked NOW for your location showing map with azimuth and elevation plus other details from your city location.







IsCatalogInMostPopularTable: catalog: 66660, numindb: 25
Update: records affected: 1



GetName: 66660 K-HERO

Hit Count: updated at: Sat, 11 Apr 2026 21:41:39 GMT